GW4557 Weather Reports


time (UTC)temp
F
wind
direction
speed
knots
gust
knots
rain 1hr
in
rain 24hr
in
rain mn
in
humidity
%
barometer
mb
20260510043204 55 54 5.2 7.0 0.00 0.02 0.00 91 1007.7
20260510042704 55 54 5.2 7.0 0.00 0.02 0.00 91 1007.7
20260510042204 55 59 5.2 7.0 0.00 0.02 0.00 91 1007.7
20260510041704 55 56 4.3 6.1 0.00 0.02 0.00 91 1007.7
20260510041204 55 48 4.3 8.7 0.00 0.02 0.00 91 1007.7
20260510040704 55 47 4.3 8.7 0.00 0.02 0.00 91 1007.8
20260510040204 55 37 6.1 8.7 0.00 0.02 0.00 91 1007.9
20260510035703 55 51 4.3 7.0 0.00 0.02 0.00 91 1007.9
20260510035204 55 71 5.2 7.0 0.00 0.02 0.00 91 1008.0
20260510034704 55 54 5.2 7.0 0.00 0.02 0.00 91 1008.0
20260510034204 55 52 4.3 5.2 0.00 0.02 0.00 91 1008.0
20260510033704 55 57 3.5 5.2 0.00 0.02 0.00 91 1008.0
20260510033204 55 50 3.5 4.3 0.00 0.02 0.00 91 1008.0
20260510032704 54 77 2.6 4.3 0.00 0.02 0.00 91 1007.9
20260510032204 54 94 1.7 5.2 0.00 0.02 0.00 91 1007.9
20260510031703 54 91 4.3 5.2 0.00 0.02 0.00 91 1008.0
20260510031204 54 103 2.6 4.3 0.00 0.02 0.00 90 1008.0
20260510030204 54 79 0.9 1.7 0.00 0.02 0.00 90 1008.2
20260510024704 55 187 2.6 2.6 0.00 0.02 0.00 90 1008.3
20260510024204 55 163 1.7 1.7 0.00 0.02 0.00 89 1008.4
20260510023704 55 88 0.9 1.7 0.00 0.02 0.00 89 1008.4
20260510023204 56 1 1.7 2.6 0.00 0.02 0.00 88 1008.4
20260510022704 56 340 1.7 4.3 0.00 0.02 0.00 88 1008.5
20260510022204 56 329 1.7 5.2 0.00 0.02 0.00 88 1008.6
20260510021704 56 335 2.6 5.2 0.00 0.02 0.00 88 1008.6
20260510021204 56 328 2.6 5.2 0.00 0.02 0.00 87 1008.5
20260510020704 57 341 1.7 7.0 0.00 0.02 0.00 87 1008.5
20260510015704 57 329 4.3 7.0 0.00 0.02 0.00 86 1008.6
20260510014704 58 1 3.5 5.2 0.00 0.02 0.00 86 1008.5
20260510013704 57 308 1.7 4.3 0.00 0.02 0.00 87 1008.5
20260510013204 57 310 1.7 4.3 0.00 0.02 0.00 86 1008.6
20260510012703 57 324 3.5 4.3 0.00 0.02 0.00 85 1008.6
20260510012203 58 294 0.9 2.6 0.00 0.02 0.00 83 1008.6
20260510011704 58 345 1.7 2.6 0.00 0.02 0.00 82 1008.6
20260510011204 59 16 0.9 5.2 0.00 0.02 0.00 81 1008.6
20260510010704 59 118 1.7 7.8 0.00 0.02 0.00 78 1008.7
20260510010204 59 61 2.6 7.8 0.00 0.02 0.00 78 1008.8
20260510005204 60 79 4.3 7.0 0.00 0.02 0.00 79 1008.9
20260510004204 60 108 5.2 12.2 0.00 0.02 0.00 80 1008.9
20260510003704 60 97 5.2 14.8 0.00 0.02 0.00 80 1008.9
20260510003204 59 110 7.8 14.8 0.00 0.02 0.00 81 1008.9
20260510002704 60 110 7.8 15.6 0.01 0.02 0.00 81 1008.8
20260510002204 60 118 8.7 15.6 0.02 0.02 0.00 80 1008.8
20260510001704 60 112 8.7 14.8 0.02 0.02 0.00 80 1008.9
20260510001204 60 117 7.8 18.2 0.00 0.02 0.00 79 1009.0
20260510000704 60 114 10.4 21.7 0.00 0.02 0.00 78 1009.0
20260510000204 61 102 11.3 21.7 0.00 0.02 0.00 77 1009.0
20260509234704 61 89 8.7 19.1 0.02 0.02 0.02 75 1009.0
20260509233704 60 93 10.4 18.2 0.02 0.02 0.02 76 1009.0
20260509232703 61 83 10.4 20.9 0.02 0.02 0.02 72 1008.7
20260509232204 61 80 12.2 20.9 0.02 0.02 0.02 71 1008.9
20260509231703 61 79 10.4 20.0 0.01 0.01 0.01 75 1009.0
20260509231204 61 119 6.1 13.9 0.00 0.00 0.00 76 1009.4
20260509230704 62 117 6.1 18.2 0.00 0.00 0.00 74 1009.5
20260509230204 61 123 11.3 18.2 0.00 0.00 0.00 75 1009.8
20260509225704 61 117 10.4 18.2 0.00 0.00 0.00 76 1009.8
20260509224204 61 125 7.8 15.6 0.00 0.00 0.00 76 1009.9
20260509223704 61 132 8.7 15.6 0.00 0.00 0.00 76 1010.0
20260509222704 61 132 7.8 13.9 0.00 0.00 0.00 76 1010.1
20260509222203 62 134 8.7 13.9 0.00 0.00 0.00 75 1010.1
20260509221204 63 146 8.7 20.0 0.00 0.00 0.00 73 1010.3
20260509220204 64 131 13.9 22.6 0.00 0.00 0.00 70 1010.3
20260509215703 64 124 8.7 15.6 0.00 0.00 0.00 70 1010.2
20260509215204 64 123 7.8 13.9 0.00 0.00 0.00 75 1010.1
20260509214703 64 124 7.0 13.0 0.00 0.00 0.00 80 1010.2
20260509214204 63 92 7.0 10.4 0.00 0.00 0.00 82 1009.9
20260509213704 63 62 4.3 6.1 0.00 0.00 0.00 82 1009.6
20260509213203 64 38 4.3 6.1 0.00 0.00 0.00 82 1009.5
20260509212705 63 22 4.3 6.1 0.00 0.00 0.00 82 1009.4
20260509212204 64 7 4.3 6.1 0.00 0.00 0.00 80 1009.4
20260509211704 64 353 4.3 6.1 0.00 0.00 0.00 80 1009.4
20260509211204 64 346 4.3 6.1 0.00 0.00 0.00 81 1009.4
20260509210704 63 337 2.6 5.2 0.00 0.00 0.00 81 1009.4
20260509210204 64 330 4.3 6.1 0.00 0.00 0.00 79 1009.5
20260509205704 65 334 3.5 6.1 0.00 0.00 0.00 78 1009.5
20260509205203 65 346 4.3 7.8 0.00 0.00 0.00 77 1009.5
20260509204704 65 348 4.3 7.8 0.00 0.00 0.00 77 1009.4
20260509204204 65 355 5.2 7.8 0.00 0.00 0.00 77 1009.4
20260509203703 65 346 4.3 7.0 0.00 0.00 0.00 77 1009.4
20260509203204 64 343 2.6 5.2 0.00 0.00 0.00 79 1009.4
20260509202704 64 350 2.6 6.1 0.00 0.00 0.00 79 1009.4
20260509201703 66 344 4.3 7.0 0.00 0.00 0.00 75 1009.5
20260509201204 66 346 4.3 6.1 0.00 0.00 0.00 75 1009.4
20260509200704 66 348 4.3 6.1 0.00 0.00 0.00 75 1009.4
20260509195704 66 339 4.3 7.0 0.00 0.00 0.00 76 1009.3
20260509195204 66 333 2.6 7.0 0.00 0.00 0.00 76 1009.3
20260509194704 66 322 4.3 8.7 0.00 0.00 0.00 75 1009.2
20260509194204 66 306 6.1 8.7 0.00 0.00 0.00 76 1009.1
20260509193704 65 303 6.1 7.0 0.00 0.00 0.00 79 1009.1
20260509192704 66 305 1.7 1.7 0.00 0.00 0.00 80 1009.0
20260509192204 65 310 1.7 2.6 0.00 0.00 0.00 81 1009.0
20260509191704 66 288 2.6 2.6 0.00 0.00 0.00 80 1009.0
20260509191204 66 279 2.6 2.6 0.00 0.00 0.00 81 1009.1
20260509190704 66 279 1.7 2.6 0.00 0.00 0.00 80 1009.1
20260509190204 67 274 1.7 1.7 0.00 0.00 0.00 79 1009.1
20260509185704 67 279 1.7 1.7 0.00 0.00 0.00 77 1009.0
20260509185204 67 269 1.7 1.7 0.00 0.00 0.00 73 1009.0
20260509184704 67 262 0.9 1.7 0.00 0.00 0.00 71 1009.0
20260509184204 68 291 0.9 1.7 0.00 0.00 0.00 67 1009.0
20260509183704 69 340 0.9 1.7 0.00 0.00 0.00 67 1008.9
20260509182704 70 103 1.7 4.3 0.00 0.00 0.00 67 1008.8
20260509182204 70 96 2.6 4.3 0.00 0.00 0.00 64 1008.8
20260509181704 71 96 1.7 4.3 0.00 0.00 0.00 62 1008.8
20260509181203 71 106 1.7 2.6 0.00 0.00 0.00 60 1008.8
20260509180704 70 100 2.6 2.6 0.00 0.00 0.00 63 1008.8
20260509180204 71 98 2.6 4.3 0.00 0.00 0.00 62 1008.8
20260509175203 71 93 1.7 2.6 0.00 0.00 0.00 60 1008.7
20260509174703 72 85 1.7 4.3 0.00 0.00 0.00 60 1008.6
20260509174203 72 82 1.7 4.3 0.00 0.00 0.00 58 1008.6
20260509173704 72 92 2.6 5.2 0.00 0.00 0.00 58 1008.6
20260509173204 72 96 2.6 5.2 0.00 0.00 0.00 60 1008.6
20260509172704 72 109 3.5 5.2 0.00 0.00 0.00 58 1008.7
20260509171703 73 87 1.7 5.2 0.00 0.00 0.00 57 1008.7
20260509171203 73 78 1.7 5.2 0.00 0.00 0.00 55 1008.7
20260509170704 73 123 1.7 6.1 0.00 0.00 0.00 55 1008.6
20260509170203 73 105 1.7 7.0 0.00 0.00 0.00 54 1008.6
20260509165704 73 95 3.5 7.0 0.00 0.00 0.00 52 1008.6
20260509165204 73 107 4.3 11.3 0.00 0.00 0.00 54 1008.6
20260509164704 73 115 7.0 11.3 0.00 0.00 0.00 53 1008.7
20260509164204 73 129 6.1 10.4 0.00 0.00 0.00 57 1008.7
20260509163704 73 117 5.2 8.7 0.00 0.00 0.00 55 1008.7
20260509163204 73 124 6.1 8.7 0.00 0.00 0.00 52 1008.7
20260509162704 73 94 4.3 10.4 0.00 0.00 0.00 54 1008.7
20260509162205 73 122 5.2 10.4 0.00 0.00 0.00 55 1008.7
20260509161704 74 122 3.5 10.4 0.00 0.00 0.00 53 1008.8
20260509161204 74 98 4.3 12.2 0.00 0.00 0.00 54 1008.7
20260509160704 74 144 7.0 12.2 0.00 0.00 0.00 53 1008.7
20260509160204 74 135 4.3 7.8 0.00 0.00 0.00 53 1008.7
20260509155704 74 119 4.3 10.4 0.00 0.00 0.00 52 1008.8
20260509154704 74 105 5.2 10.4 0.00 0.00 0.00 52 1008.9
20260509154204 74 84 4.3 10.4 0.00 0.00 0.00 51 1008.9
20260509153704 74 106 2.6 11.3 0.00 0.00 0.00 53 1008.9
20260509152704 74 133 6.1 8.7 0.00 0.00 0.00 52 1009.0
20260509152204 74 149 6.1 8.7 0.00 0.00 0.00 53 1009.1
20260509151704 75 154 4.3 10.4 0.00 0.00 0.00 55 1009.1
20260509151204 74 137 5.2 13.9 0.00 0.00 0.00 55 1009.2
20260509150703 74 135 6.1 13.9 0.00 0.00 0.00 53 1009.3
20260509150204 74 96 3.5 8.7 0.00 0.00 0.00 51 1009.3
20260509145704 74 121 4.3 12.2 0.00 0.00 0.00 51 1009.4
20260509145204 74 128 6.1 13.9 0.00 0.00 0.00 53 1009.5
20260509144704 74 127 7.0 13.9 0.00 0.00 0.00 51 1009.5
20260509144204 74 110 6.1 12.2 0.00 0.00 0.00 52 1009.5
20260509143704 75 120 8.7 12.2 0.00 0.00 0.00 51 1009.6
20260509143204 75 113 4.3 11.3 0.00 0.00 0.00 53 1009.6
20260509142704 75 107 6.1 11.3 0.00 0.00 0.00 53 1009.6
20260509142204 75 150 4.3 10.4 0.00 0.00 0.00 54 1009.6
20260509141704 75 161 5.2 12.2 0.00 0.00 0.00 54 1009.6
20260509141204 75 136 7.0 12.2 0.00 0.00 0.00 55 1009.7
20260509140704 75 148 5.2 14.8 0.00 0.00 0.00 56 1009.7
20260509140204 74 138 9.6 14.8 0.00 0.00 0.00 53 1009.7
20260509135704 75 138 7.0 13.0 0.00 0.00 0.00 54 1009.8
20260509135204 74 151 6.1 12.2 0.00 0.00 0.00 53 1009.8
20260509134704 75 158 7.0 13.0 0.00 0.00 0.00 54 1009.8
20260509134204 75 106 8.7 13.0 0.00 0.00 0.00 53 1009.9
20260509133204 75 109 7.8 13.0 0.00 0.00 0.00 52 1009.9
20260509132204 75 113 7.0 13.0 0.00 0.00 0.00 51 1010.0
20260509131703 75 109 5.2 13.9 0.00 0.00 0.00 52 1010.1
20260509130704 75 99 7.0 13.0 0.00 0.00 0.00 53 1010.2
20260509130204 75 138 5.2 13.0 0.00 0.00 0.00 56 1010.2
20260509125704 74 82 5.2 13.0 0.00 0.00 0.00 53 1010.3
20260509125204 75 122 6.1 13.0 0.00 0.00 0.00 52 1010.3
20260509124203 73 98 7.0 14.8 0.00 0.00 0.00 55 1010.4
20260509123704 75 112 10.4 14.8 0.00 0.00 0.00 53 1010.4
20260509123204 75 130 4.3 12.2 0.00 0.00 0.00 54 1010.4
20260509122704 75 153 8.7 13.0 0.00 0.00 0.00 54 1010.4
20260509122204 74 168 7.8 13.0 0.00 0.00 0.00 54 1010.5
20260509121705 75 121 7.8 13.0 0.00 0.00 0.00 52 1010.5
20260509120704 74 126 5.2 14.8 0.00 0.00 0.00 55 1010.5
20260509115704 74 116 8.7 14.8 0.00 0.00 0.00 55 1010.3
20260509114704 73 106 5.2 13.0 0.00 0.00 0.00 59 1010.3
20260509114203 73 86 3.5 13.9 0.00 0.00 0.00 57 1010.4
20260509113704 73 141 7.0 13.9 0.00 0.00 0.00 59 1010.5
20260509113204 73 126 5.2 13.0 0.00 0.00 0.00 58 1010.5
20260509112704 73 127 6.1 12.2 0.00 0.00 0.00 58 1010.6
20260509112204 73 141 7.0 12.2 0.00 0.00 0.00 59 1010.7
20260509111704 72 127 4.3 13.9 0.00 0.00 0.00 60 1010.8
20260509111204 72 125 2.6 13.9 0.00 0.00 0.00 60 1010.9
20260509110204 72 154 5.2 12.2 0.00 0.00 0.00 60 1011.0
20260509105704 72 125 6.1 13.0 0.00 0.00 0.00 62 1011.0
20260509105204 71 167 7.8 13.0 0.00 0.00 0.00 62 1011.1
20260509104704 72 138 7.8 13.0 0.00 0.00 0.00 60 1011.1
20260509104204 71 167 7.0 12.2 0.00 0.00 0.00 61 1011.2
20260509103704 72 159 8.7 13.0 0.00 0.00 0.00 61 1011.3
20260509103204 72 118 7.8 13.0 0.00 0.00 0.00 62 1011.3
20260509102204 71 111 6.1 12.2 0.00 0.00 0.00 63 1011.3
20260509101704 71 124 7.0 12.2 0.00 0.00 0.00 63 1011.4
20260509101204 70 127 5.2 12.2 0.00 0.00 0.00 64 1011.4
20260509100705 71 128 7.0 11.3 0.00 0.00 0.00 66 1011.5
20260509100205 70 157 7.0 12.2 0.00 0.00 0.00 64 1011.5
20260509095704 70 158 8.7 13.0 0.00 0.00 0.00 64 1011.5
20260509095204 70 164 9.6 13.0 0.00 0.00 0.00 65 1011.5
20260509094203 70 145 7.8 13.9 0.00 0.00 0.00 67 1011.4
20260509093704 69 154 8.7 13.9 0.00 0.00 0.00 67 1011.5
20260509093204 69 154 8.7 13.0 0.00 0.00 0.00 67 1011.5
20260509092704 68 158 5.2 13.0 0.00 0.00 0.00 69 1011.5
20260509092205 68 153 6.1 13.0 0.00 0.00 0.00 70 1011.6
20260509091703 68 155 7.8 12.2 0.00 0.00 0.00 70 1011.6
20260509091204 67 133 7.8 11.3 0.00 0.00 0.00 70 1011.5
20260509090704 68 150 5.2 8.7 0.00 0.00 0.00 70 1011.4
20260509090204 68 141 5.2 11.3 0.00 0.00 0.00 69 1011.3
20260509085704 68 135 5.2 11.3 0.00 0.00 0.00 70 1011.1
20260509085204 68 161 7.8 13.0 0.00 0.00 0.00 71 1011.1
20260509084204 67 159 8.7 13.0 0.00 0.00 0.00 71 1011.1
20260509083704 67 156 6.1 13.9 0.00 0.00 0.00 72 1011.0
20260509083204 66 157 6.1 13.9 0.00 0.00 0.00 72 1011.1
20260509082704 66 154 7.8 13.9 0.00 0.00 0.00 73 1011.1
20260509082204 65 158 8.7 13.0 0.00 0.00 0.00 74 1011.1
20260509081205 64 147 7.0 13.9 0.00 0.00 0.00 74 1011.3
20260509080204 64 141 8.7 15.6 0.00 0.00 0.00 75 1011.6
20260509075704 64 124 6.1 13.0 0.00 0.00 0.00 77 1011.6
20260509075204 63 153 8.7 13.0 0.00 0.00 0.00 77 1011.6
20260509074704 63 139 5.2 10.4 0.00 0.00 0.00 79 1011.6
20260509074204 61 143 5.2 12.2 0.00 0.00 0.00 81 1011.7
20260509072704 60 130 6.1 11.3 0.00 0.00 0.00 81 1011.6
20260509072205 61 125 6.1 13.0 0.00 0.00 0.00 81 1011.6
20260509071704 61 123 7.8 13.0 0.00 0.00 0.00 81 1011.6
20260509071206 60 127 6.1 13.0 0.00 0.00 0.00 82 1011.6
20260509070703 60 127 6.1 13.0 0.00 0.00 0.00 82 1011.6
20260509070204 59 134 7.8 12.2 0.00 0.00 0.00 82 1011.7
20260509065704 59 130 7.0 11.3 0.00 0.00 0.00 83 1011.7
20260509065204 59 129 6.1 11.3 0.00 0.00 0.00 84 1011.7
20260509064704 59 139 7.8 11.3 0.00 0.00 0.00 84 1011.7
20260509064204 59 135 6.1 11.3 0.00 0.00 0.00 84 1011.8
20260509063704 58 136 7.0 11.3 0.00 0.00 0.00 85 1011.7
20260509062704 58 133 5.2 7.8 0.00 0.00 0.00 86 1011.7
20260509062204 58 130 2.6 7.0 0.00 0.00 0.00 86 1011.7
20260509061704 58 136 4.3 6.1 0.00 0.00 0.00 86 1011.7
20260509061204 58 125 4.3 6.1 0.00 0.00 0.00 86 1011.6
20260509060704 57 123 2.6 5.2 0.00 0.00 0.00 86 1011.6
20260509055704 57 132 2.6 6.1 0.00 0.00 0.00 87 1011.6
20260509054703 56 139 4.3 7.0 0.00 0.00 0.00 87 1011.5
20260509054204 56 142 4.3 7.0 0.00 0.00 0.00 87 1011.5
20260509053704 56 137 4.3 7.0 0.00 0.00 0.00 87 1011.4
20260509053204 56 134 4.3 7.0 0.00 0.00 0.00 87 1011.4
20260509052704 56 130 4.3 7.0 0.00 0.00 0.00 87 1011.4
20260509052204 56 130 4.3 8.7 0.00 0.00 0.00 87 1011.4
20260509051704 56 131 4.3 8.7 0.00 0.00 0.00 87 1011.3
20260509050704 56 144 5.2 7.8 0.00 0.00 0.00 87 1011.4
20260509050204 55 138 5.2 7.8 0.00 0.00 0.00 87 1011.3
20260509045704 55 137 5.2 7.8 0.00 0.00 0.00 88 1011.3
20260509045204 55 138 5.2 7.8 0.00 0.00 0.00 88 1011.3
20260509044704 55 125 5.2 7.0 0.00 0.00 0.00 87 1011.2
20260509044204 55 126 3.5 7.0 0.00 0.00 0.00 87 1011.2
20260509043704 55 128 4.3 7.0 0.00 0.00 0.00 87 1011.2